Location: BGSU Observatory
(41.3799°N, 83.6397°W)
Time: 14:49:05
(UTC-05:00)

Amateur Radio Satellites - All Passes

Search period start: 02 December 2016 14:19
Search period end: 03 December 2016 14:19
Location: BGSU Observatory, 41.3799°N, 83.6397°W

Satellite Date Start Highest point End Downlink Frequencies (MHz)
Time Altitude Azimuth
DX 1 02 Dec 14:31:59 14:34:23 14° 297° (WNW) 14:36:44 434.975-435.025
SWISSCUBE 02 Dec 14:37:48 14:42:06 33° 97° (E) 14:46:21 437.505
Cosmos 2499 02 Dec 14:40:43 14:46:18 19° 283° (WNW) 14:51:42 435.465 / 435.565
BEESAT 02 Dec 14:42:18 14:46:36 33° 97° (E) 14:50:52 436.000
UKube-1 02 Dec 14:47:49 14:49:47 13° 298° (WNW) 14:51:45 .
Gurwin Techsat 1B 02 Dec 14:51:55 14:56:03 23° 266° (W) 15:00:14 435.225
AO-7 02 Dec 14:58:36 15:06:51 74° 68° (ENE) 15:15:10 29.400- 29.500
RS-15 02 Dec 14:59:23 15:09:48 30° 25° (NNE) 15:20:06 29.354- 29.394
BEESAT 3 02 Dec 15:01:23 15:05:18 51° 54° (NE) 15:09:10 437.485
ITUPSAT 1 02 Dec 15:06:51 15:11:33 58° 101° (E) 15:16:14 437.325
TISAT 1 02 Dec 15:09:22 15:12:42 23° 293° (WNW) 15:16:00 437.305
BEESAT 2 02 Dec 15:21:33 15:25:22 39° 52° (NE) 15:29:10 435.950
AUBIESAT-1 02 Dec 15:22:12 15:26:52 83° 108° (ESE) 15:31:22 437.475
M-CUBED/EXP-1 PRIME 02 Dec 15:30:50 15:35:31 67° 291° (WNW) 15:40:04 437.505
ITAMSAT 1 02 Dec 15:48:02 15:52:28 28° 264° (W) 15:56:56 435.822/435.867
KKS-1 02 Dec 15:49:31 15:52:22 16° 92° (E) 15:55:11 437.445
HORYU 2 02 Dec 16:02:24 16:05:32 19° 65° (ENE) 16:08:41 437.375
STARS 02 Dec 16:08:11 16:09:40 11° 90° (E) 16:11:09 437.465
SWISSCUBE 02 Dec 16:15:48 16:19:44 26° 294° (WNW) 16:23:39 437.505
CUBESAT XI-V 02 Dec 16:18:42 16:20:13 11° 89° (E) 16:21:45 437.345
BEESAT 02 Dec 16:20:18 16:24:14 26° 293° (WNW) 16:28:10 436.000
MOZHAYETS 4 02 Dec 16:24:47 16:29:22 86° 280° (W) 16:33:55
O/OREOS (USA 219) 02 Dec 16:26:58 16:30:42 25° 103° (ESE) 16:34:24 437.305
BEESAT 3 02 Dec 16:40:24 16:42:29 14° 250° (WSW) 16:44:35 437.485
ITUPSAT 1 02 Dec 16:46:00 16:48:55 16° 298° (WNW) 16:51:48 437.325
CUTE-I 02 Dec 16:52:52 16:56:51 21° 63° (ENE) 17:00:49 437.470
AO-7 02 Dec 16:54:00 17:00:19 24° 267° (W) 17:06:41 29.400- 29.500
AUBIESAT-1 02 Dec 16:58:34 17:00:34 13° 305° (NW) 17:02:31 437.475
BEESAT 2 02 Dec 17:00:01 17:02:53 19° 249° (WSW) 17:05:43 435.950
ISS 02 Dec 17:00:09 17:01:47 13° 130° (SE) 17:03:25 145.825
GOMX 1 02 Dec 17:02:26 17:06:30 35° 69° (ENE) 17:10:51 467.674
BRITE-PL 02 Dec 17:05:42 17:09:54 86° 258° (WSW) 17:14:22 437.365/2234.400
RS-15 02 Dec 17:12:34 17:25:00 73° 54° (NE) 17:37:01 29.354- 29.394
AIST 2 02 Dec 17:13:07 17:16:14 20° 44° (NE) 17:19:21 435.215
Cubesat XI-IV 02 Dec 17:16:29 17:21:15 34° 67° (ENE) 17:26:03 437.490
KKS-1 02 Dec 17:24:51 17:29:09 47° 289° (WNW) 17:33:26 437.445
LilacSat-2 02 Dec 17:24:57 17:28:25 32° 71° (ENE) 17:31:52 437.200
NOAA 15 02 Dec 17:27:47 17:32:46 47° 70° (ENE) 17:37:47 137.62
DOVE 4 02 Dec 17:33:23 17:37:33 33° 68° (ENE) 17:41:59 437.250
HORYU 2 02 Dec 17:37:29 17:41:46 43° 261° (W) 17:46:04 437.375
STARS 02 Dec 17:42:02 17:46:26 65° 287° (WNW) 17:50:48 437.465
CINEMA 3 02 Dec 17:46:29 17:48:41 13° 60° (ENE) 17:50:53 145.822/145.860
HO-68 02 Dec 17:47:40 17:52:26 19° 55° (NE) 17:57:11 435.675
CUBESAT XI-V 02 Dec 17:53:26 17:58:04 71° 285° (WNW) 18:02:42 437.345
O/OREOS (USA 219) 02 Dec 18:05:50 18:09:57 32° 300° (WNW) 18:14:04 437.305
NOAA 18 02 Dec 18:06:08 18:11:35 63° 72° (ENE) 18:17:05 137.9125
Cosmos 2491 02 Dec 18:08:20 18:16:28 41° 73° (ENE) 18:24:31 435.465 / 435.565
CUTE-I 02 Dec 18:31:15 18:36:29 53° 260° (W) 18:41:45 437.470
ISS 02 Dec 18:34:36 18:37:54 71° 326° (NW) 18:41:12 145.825
YUBILEINY 02 Dec 18:38:59 18:45:39 26° 81° (E) 18:52:20 435.215
GOMX 1 02 Dec 18:41:16 18:44:44 22° 268° (W) 18:48:23 467.674
AIST 2 02 Dec 18:50:53 18:54:59 50° 242° (WSW) 18:59:04 435.215
Cubesat XI-IV 02 Dec 18:56:30 19:01:17 32° 264° (W) 19:06:04 437.490
LilacSat-2 02 Dec 19:00:08 19:02:46 17° 267° (W) 19:05:24 437.200
CUTE 1.7 + AOD 2 02 Dec 19:00:43 19:04:34 36° 72° (ENE) 19:08:27 437.475
NOAA 15 02 Dec 19:08:48 19:12:46 22° 266° (W) 19:16:45 137.62
DOVE 4 02 Dec 19:11:18 19:15:15 27° 267° (W) 19:19:25 437.250
CANX-2 02 Dec 19:17:30 19:21:42 67° 74° (ENE) 19:25:53 2200.000
CINEMA 3 02 Dec 19:20:11 19:25:03 81° 257° (WSW) 19:30:05 145.822/145.860
UWE-3 02 Dec 19:21:12 19:24:28 19° 66° (ENE) 19:27:43 435.000/436.395/437.385
RS-15 02 Dec 19:26:05 19:36:31 35° 256° (WSW) 19:46:41 29.354- 29.394
HO-68 02 Dec 19:32:04 19:39:14 87° 254° (WSW) 19:46:28 435.675
AAUSAT CUBESAT 2 02 Dec 19:43:32 19:47:20 38° 72° (ENE) 19:51:09 437.432
NOAA 18 02 Dec 19:49:05 19:52:40 17° 268° (W) 19:56:17 137.9125
SEEDS 02 Dec 19:51:16 19:55:27 87° 256° (WSW) 19:59:39 437.485
STRAND 1 02 Dec 19:54:39 19:59:45 70° 102° (ESE) 20:04:50 437.568
AIST 1 02 Dec 20:03:53 20:07:33 28° 90° (E) 20:11:17
CUBEBUG 2 02 Dec 20:04:53 20:09:38 79° 76° (ENE) 20:14:25 437.445
Cosmos 2491 02 Dec 20:05:15 20:13:18 44° 273° (W) 20:21:20 435.465 / 435.565
COMPASS 1 02 Dec 20:09:20 20:13:29 81° 260° (W) 20:17:37 437.405
ZACube-1 02 Dec 20:10:15 20:14:25 36° 71° (ENE) 20:18:34 437.345
CUSAT 1 02 Dec 20:12:02 20:13:33 12° 75° (ENE) 20:15:12 437.405
ISS 02 Dec 20:12:27 20:14:51 18° 345° (NNW) 20:17:16 145.825
Cosmos 2504 02 Dec 20:17:26 20:25:18 52° 89° (E) 20:33:40 435.465 / 435.565
FUNcube-1 02 Dec 20:20:08 20:24:25 42° 72° (ENE) 20:28:41 145.935
YUBILEINY 02 Dec 20:32:59 20:41:37 68° 280° (W) 20:50:22 435.215
CUTE 1.7 + AOD 2 02 Dec 20:37:34 20:40:32 18° 267° (W) 20:43:30 437.475
HUMSAT D 02 Dec 20:39:31 20:41:23 13° 63° (ENE) 20:43:14 437.325/437.525
PCSat 02 Dec 20:50:11 20:54:46 27° 48° (NE) 20:59:19 145.827
PRISM 02 Dec 20:55:11 20:58:09 19° 94° (E) 21:01:08 437.425
Oscar 11 02 Dec 20:55:53 21:00:12 83° 258° (WSW) 21:04:33 145.826/435.025
UWE-3 02 Dec 20:56:04 21:00:34 46° 261° (W) 21:05:03 435.000/436.395/437.385
CANX-2 02 Dec 20:57:48 20:57:58 10° 271° (W) 20:58:08 2200.000
DELFI C3 02 Dec 21:16:09 21:19:59 58° 74° (ENE) 21:23:51 145.870
AAUSAT CUBESAT 2 02 Dec 21:20:16 21:22:57 17° 268° (W) 21:25:39 437.432
HO-68 02 Dec 21:24:04 21:27:53 15° 271° (W) 21:31:41 435.675
SO-50 02 Dec 21:31:11 21:35:58 79° 121° (ESE) 21:40:42 436.795
STRAND 1 02 Dec 21:35:26 21:38:20 15° 299° (WNW) 21:41:15 437.568
AIST 1 02 Dec 21:41:42 21:45:08 23° 287° (WNW) 21:48:37
CUBEBUG 2 02 Dec 21:45:41 21:46:47 11° 272° (W) 21:47:52 437.445
ZACube-1 02 Dec 21:47:12 21:50:45 22° 266° (W) 21:54:18 437.345
ISS 02 Dec 21:50:25 21:52:20 14° 5° (N) 21:54:15 145.825
CUSAT 1 02 Dec 21:52:12 21:55:21 35° 262° (W) 21:59:18 437.405
UNISAT 6 02 Dec 21:52:46 21:55:53 19° 92° (E) 21:58:56 437.425
FUNcube-1 02 Dec 21:57:36 22:00:48 19° 267° (W) 22:04:00 145.935
DANDE 02 Dec 22:00:37 22:03:14 49° 79° (E) 22:06:14 436.750
Cosmos 2504 02 Dec 22:11:36 22:18:59 35° 290° (WNW) 22:26:49 435.465 / 435.565
HUMSAT D 02 Dec 22:12:19 22:16:30 60° 259° (W) 22:20:40 437.325/437.525
TIGRISAT 02 Dec 22:23:16 22:27:23 36° 97° (E) 22:31:22 435.000
ANTELSAT 02 Dec 22:23:39 22:27:50 39° 98° (E) 22:31:53 437.575/2403.000
ESTCUBE 1 02 Dec 22:24:26 22:28:10 27° 68° (ENE) 22:31:55 437.505/2401.250
PRISM 02 Dec 22:29:45 22:33:32 35° 289° (WNW) 22:37:19 437.425
PCSat 02 Dec 22:33:11 22:38:24 49° 247° (WSW) 22:43:35 145.827
YUBILEINY 02 Dec 22:36:24 22:40:19 13° 303° (WNW) 22:44:16 435.215
AISAT 02 Dec 22:47:36 22:50:55 21° 66° (ENE) 22:54:16 437.250
SPROUT 02 Dec 22:51:22 22:53:34 14° 63° (ENE) 22:55:47 437.525
JAS-2 02 Dec 22:53:36 22:56:42 16° 92° (E) 22:59:51 435.910
DELFI C3 02 Dec 22:54:54 22:55:10 10° 270° (W) 22:55:26 145.870
SO-50 02 Dec 23:13:53 23:17:00 17° 320° (NW) 23:20:04 436.795
NANOSAT C BR1 02 Dec 23:19:49 23:22:28 16° 92° (E) 23:25:07 145.865
QB50P2 02 Dec 23:21:32 23:24:39 20° 94° (E) 23:27:44 145.880/145.840
POLYITAN 1 02 Dec 23:22:16 23:25:16 19° 93° (E) 23:28:16 437.675
CUBEBUG 1 02 Dec 23:22:38 23:26:56 67° 75° (ENE) 23:31:18 437.445
VELOX 1 02 Dec 23:23:43 23:27:55 47° 72° (ENE) 23:32:10 145.980
ISS 02 Dec 23:26:38 23:29:38 30° 25° (NNE) 23:32:37 145.825
UNISAT 6 02 Dec 23:28:37 23:32:46 39° 289° (WNW) 23:36:49 437.425
Cosmos 2499 02 Dec 23:34:04 23:37:29 13° 73° (ENE) 23:40:57 435.465 / 435.565
QB50P1 02 Dec 23:36:07 23:39:43 26° 95° (E) 23:43:17 145.935-145.965
DUCHIFAT 1 02 Dec 23:43:15 23:46:52 27° 95° (E) 23:50:26 145.980
DX 1 02 Dec 23:49:39 23:53:49 49° 72° (ENE) 23:58:02 434.975-435.025
50 SAT 02 Dec 23:50:16 23:53:46 80° 76° (ENE) 23:57:18 437.505
POPSAT HIP 1 02 Dec 23:56:54 00:00:59 44° 99° (E) 00:05:01 437.405
TIGRISAT 03 Dec 00:00:30 00:03:48 21° 294° (WNW) 00:07:02 435.000
ESTCUBE 1 03 Dec 00:00:59 00:04:52 29° 264° (W) 00:08:46 437.505/2401.250
ANTELSAT 03 Dec 00:01:03 00:04:14 20° 295° (WNW) 00:07:21 437.575/2403.000
UKube-1 03 Dec 00:04:13 00:08:23 52° 73° (ENE) 00:12:36 .
AISAT 03 Dec 00:23:04 00:27:08 36° 262° (W) 00:31:15 437.250
SPROUT 03 Dec 00:24:47 00:29:00 57° 259° (W) 00:33:16 437.525
TISAT 1 03 Dec 00:25:13 00:28:37 24° 67° (ENE) 00:32:02 437.305
AUBIESAT-1 03 Dec 00:36:50 00:37:58 11° 54° (NE) 00:39:08 437.475
JAS-2 03 Dec 00:37:09 00:42:14 58° 288° (WNW) 00:47:26 435.910
M-CUBED/EXP-1 PRIME 03 Dec 00:44:17 00:46:47 16° 57° (ENE) 00:49:23 437.505
NANOSAT C BR1 03 Dec 00:54:23 00:58:23 42° 288° (WNW) 01:02:21 145.865
BUGSAT 1 03 Dec 00:55:06 00:59:20 67° 101° (ESE) 01:03:28 437.445
QB50P2 03 Dec 00:56:39 01:00:33 35° 289° (WNW) 01:04:23 145.880/145.840
POLYITAN 1 03 Dec 00:57:16 01:01:11 36° 289° (WNW) 01:05:04 437.675
VELOX 1 03 Dec 01:01:56 01:04:38 16° 268° (W) 01:07:21 145.980
CUBEBUG 1 03 Dec 01:02:40 01:03:41 11° 271° (W) 01:04:41 437.445
ISS 03 Dec 01:03:05 01:06:11 38° 222° (SW) 01:09:17 145.825
GONETS M04 03 Dec 01:09:47 01:18:12 56° 90° (E) 01:26:36
QB50P1 03 Dec 01:11:51 01:15:24 26° 292° (WNW) 01:18:55 145.935-145.965
DUCHIFAT 1 03 Dec 01:18:58 01:22:28 25° 292° (WNW) 01:25:55 145.980
Cosmos 2499 03 Dec 01:20:29 01:28:49 70° 93° (E) 01:37:38 435.465 / 435.565
DX 1 03 Dec 01:27:48 01:30:16 15° 268° (W) 01:32:46 434.975-435.025
Gurwin Techsat 1B 03 Dec 01:28:01 01:31:30 17° 91° (E) 01:34:57 435.225
POPSAT HIP 1 03 Dec 01:33:42 01:36:24 17° 295° (WNW) 01:39:05 437.405
PHONESAT 2.4 03 Dec 01:40:03 01:41:05 12° 150° (SSE) 01:42:09 2401.200-2431.200
UKube-1 03 Dec 01:42:33 01:44:44 14° 268° (W) 01:46:55 .
SWISSCUBE 03 Dec 01:44:07 01:48:32 39° 70° (ENE) 01:52:59 437.505
BEESAT 03 Dec 01:48:34 01:52:59 39° 70° (ENE) 01:57:25 436.000
Oscar 19 03 Dec 02:00:04 02:05:16 69° 103° (ESE) 02:10:26 437.125/150
TISAT 1 03 Dec 02:00:24 02:04:06 29° 264° (W) 02:07:51 437.305
AUBIESAT-1 03 Dec 02:07:37 02:11:37 82° 252° (WSW) 02:15:58 437.475
ITUPSAT 1 03 Dec 02:13:22 02:18:08 68° 73° (ENE) 02:22:53 437.325
M-CUBED/EXP-1 PRIME 03 Dec 02:16:55 02:20:46 51° 256° (WSW) 02:24:58 437.505
ITAMSAT 1 03 Dec 02:23:01 02:24:54 12° 89° (E) 02:26:48 435.822/435.867
BUGSAT 1 03 Dec 02:32:42 02:34:06 11° 298° (WNW) 02:35:30 437.445
O/OREOS (USA 219) 03 Dec 02:36:03 02:40:25 48° 64° (ENE) 02:44:44 437.305
KKS-1 03 Dec 02:47:56 02:50:44 16° 63° (ENE) 02:53:31 437.445
AO-7 03 Dec 03:01:13 03:07:35 23° 93° (E) 03:13:54 29.400- 29.500
STARS 03 Dec 03:05:21 03:06:54 12° 61° (ENE) 03:08:27 437.465
Gurwin Techsat 1B 03 Dec 03:06:35 03:11:49 59° 288° (WNW) 03:17:01 435.225
GONETS M04 03 Dec 03:07:46 03:15:23 33° 290° (WNW) 03:23:02
PHONESAT 2.4 03 Dec 03:13:24 03:15:58 44° 165° (SSE) 03:18:32 2401.200-2431.200
AO-85 03 Dec 03:14:21 03:19:18 68° 120° (ESE) 03:23:53 145.980
Cosmos 2499 03 Dec 03:15:49 03:22:45 27° 294° (WNW) 03:29:58 435.465 / 435.565
CUBESAT XI-V 03 Dec 03:22:27 03:24:17 12° 61° (ENE) 03:26:07 437.345
SWISSCUBE 03 Dec 03:22:46 03:26:27 22° 266° (W) 03:30:09 437.505
MOZHAYETS 4 03 Dec 03:26:16 03:30:53 89° 82° (E) 03:35:30
BEESAT 03 Dec 03:27:11 03:30:52 22° 266° (W) 03:34:36 436.000
Oscar 19 03 Dec 03:40:54 03:44:00 16° 299° (WNW) 03:47:06 437.125/150
ITUPSAT 1 03 Dec 03:54:20 03:56:24 13° 270° (W) 03:58:29 437.325
ITAMSAT 1 03 Dec 03:59:46 04:04:58 80° 286° (WNW) 04:10:08 435.822/435.867
O/OREOS (USA 219) 03 Dec 04:16:40 04:19:22 16° 261° (W) 04:22:04 437.305
KKS-1 03 Dec 04:22:32 04:26:52 50° 260° (W) 04:31:15 437.445
SO-50 03 Dec 04:24:07 04:25:53 12° 35° (NE) 04:27:39 436.795
STARS 03 Dec 04:38:12 04:42:37 74° 258° (WSW) 04:47:04 437.465
PHONESAT 2.4 03 Dec 04:48:29 04:51:08 74° 183° (S) 04:53:47 2401.200-2431.200
YUBILEINY 03 Dec 04:49:39 04:52:48 12° 55° (NE) 04:55:56 435.215
AO-7 03 Dec 04:52:41 05:01:03 76° 291° (WNW) 05:09:23 29.400- 29.500
CUBESAT XI-V 03 Dec 04:56:28 05:01:02 73° 258° (WSW) 05:05:39 437.345
AO-85 03 Dec 04:56:47 05:00:07 18° 317° (NW) 05:03:17 145.980
GOMX 1 03 Dec 05:04:58 05:07:39 14° 88° (E) 05:10:21 467.674
BRITE-PL 03 Dec 05:09:17 05:14:08 34° 96° (E) 05:19:11 437.365/2234.400
HORYU 2 03 Dec 05:28:15 05:32:17 33° 98° (E) 05:36:17 437.375
STRAND 1 03 Dec 05:34:47 05:37:08 13° 59° (ENE) 05:39:29 437.568
DOVE 4 03 Dec 05:35:10 05:35:45 10° 86° (E) 05:36:20 437.250
Cubesat XI-IV 03 Dec 05:35:25 05:37:33 12° 89° (E) 05:39:41 437.490
ITAMSAT 1 03 Dec 05:42:18 05:43:34 11° 303° (WNW) 05:44:49 435.822/435.867
NOAA 15 03 Dec 05:43:49 05:47:13 17° 92° (E) 05:50:37 137.62
SO-50 03 Dec 06:02:41 06:07:13 69° 55° (NE) 06:11:39 436.795
Cosmos 2504 03 Dec 06:10:56 06:17:09 21° 62° (ENE) 06:23:11 435.465 / 435.565
PHONESAT 2.4 03 Dec 06:23:48 06:26:16 34° 198° (SSW) 06:28:44 2401.200-2431.200
BEESAT 3 03 Dec 06:28:32 06:32:26 88° 302° (WNW) 06:36:24 437.485
NOAA 18 03 Dec 06:28:41 06:33:17 26° 95° (E) 06:37:50 137.9125
LilacSat-2 03 Dec 06:31:56 06:35:36 47° 99° (E) 06:39:14 437.200
GOMX 1 03 Dec 06:40:48 06:46:15 80° 284° (WNW) 06:51:45 467.674
YUBILEINY 03 Dec 06:42:56 06:51:41 62° 78° (ENE) 07:00:24 435.215
AO-7 03 Dec 06:47:17 06:52:28 18° 312° (NW) 06:57:41 29.400- 29.500
BRITE-PL 03 Dec 06:47:48 06:52:30 33° 291° (WNW) 06:57:25 437.365/2234.400
CUTE-I 03 Dec 06:48:03 06:53:22 62° 101° (ESE) 06:58:37 437.470
BEESAT 2 03 Dec 06:50:14 06:54:09 71° 121° (ESE) 06:58:08 435.950
HO-68 03 Dec 07:01:25 07:05:57 17° 90° (E) 07:10:28 435.675
CANX-2 03 Dec 07:04:37 07:05:58 11° 90° (E) 07:07:20 2200.000
HORYU 2 03 Dec 07:05:09 07:08:39 23° 294° (WNW) 07:12:07 437.375
DOVE 4 03 Dec 07:08:48 07:14:09 86° 101° (ESE) 07:19:23 437.250
Cosmos 2491 03 Dec 07:09:25 07:17:39 47° 88° (E) 07:25:53 435.465 / 435.565
STRAND 1 03 Dec 07:10:27 07:15:36 83° 256° (WSW) 07:20:46 437.568
Cubesat XI-IV 03 Dec 07:12:52 07:18:15 81° 285° (WNW) 07:23:34 437.490
CINEMA 3 03 Dec 07:15:41 07:19:43 26° 93° (E) 07:23:36 145.822/145.860
NOAA 15 03 Dec 07:22:11 07:27:22 59° 288° (WNW) 07:32:33 137.62
RS-15 03 Dec 07:35:40 07:46:26 45° 108° (ESE) 07:57:39 29.354- 29.394
SEEDS 03 Dec 07:36:13 07:38:41 15° 92° (E) 07:41:10 437.485
SO-50 03 Dec 07:45:10 07:47:03 12° 252° (WSW) 07:48:56 436.795
PRISM 03 Dec 07:45:28 07:47:40 14° 64° (ENE) 07:49:53 437.425
AIST 1 03 Dec 07:47:19 07:51:45 85° 80° (E) 07:56:10
COMPASS 1 03 Dec 07:53:07 07:55:39 16° 92° (E) 07:58:10 437.405
CUBEBUG 2 03 Dec 07:57:16 08:00:02 16° 91° (E) 08:02:43 437.445
Cosmos 2504 03 Dec 08:02:55 08:11:50 88° 264° (W) 08:20:15 435.465 / 435.565
LilacSat-2 03 Dec 08:07:51 08:09:28 12° 295° (WNW) 08:11:06 437.200
NOAA 18 03 Dec 08:08:52 08:14:04 43° 292° (WNW) 08:19:14 137.9125
BEESAT 3 03 Dec 08:09:17 08:10:41 12° 321° (NW) 08:12:04 437.485
CUTE 1.7 + AOD 2 03 Dec 08:20:40 08:24:54 74° 102° (ESE) 08:29:05 437.475
GOMX 1 03 Dec 08:21:34 08:23:27 12° 301° (WNW) 08:25:20 467.674
CUTE-I 03 Dec 08:29:20 08:32:53 18° 299° (WNW) 08:36:25 437.470
BEESAT 2 03 Dec 08:30:16 08:32:25 14° 319° (NW) 08:34:35 435.950
CANX-2 03 Dec 08:38:03 08:42:11 59° 286° (WNW) 08:46:20 2200.000
YUBILEINY 03 Dec 08:40:42 08:47:50 29° 278° (W) 08:54:58 435.215
Oscar 11 03 Dec 08:43:57 08:46:54 18° 93° (E) 08:49:48 145.826/435.025
UWE-3 03 Dec 08:45:55 08:49:54 34° 97° (E) 08:53:45 435.000/436.395/437.385
HO-68 03 Dec 08:47:13 08:54:27 84° 288° (WNW) 09:01:39 435.675
AIST 2 03 Dec 08:48:22 08:52:00 31° 114° (ESE) 08:55:40 435.215
DOVE 4 03 Dec 08:48:30 08:51:03 14° 300° (WNW) 08:53:34 437.250
UNISAT 6 03 Dec 08:51:33 08:54:50 19° 65° (ENE) 08:58:06 437.425
CINEMA 3 03 Dec 08:52:29 08:56:52 34° 291° (WNW) 09:01:05 145.822/145.860
Cubesat XI-IV 03 Dec 08:55:47 08:57:25 11° 303° (WNW) 08:59:04 437.490
AAUSAT CUBESAT 2 03 Dec 09:00:27 09:04:35 72° 102° (ESE) 09:08:43 437.432
Cosmos 2491 03 Dec 09:06:33 09:14:35 39° 288° (WNW) 09:22:39 435.465 / 435.565
SEEDS 03 Dec 09:10:37 09:14:36 43° 287° (WNW) 09:18:34 437.485
CUSAT 1 03 Dec 09:16:54 09:17:29 10° 94° (E) 09:18:02 437.405
PRISM 03 Dec 09:18:37 09:22:33 48° 260° (W) 09:26:31 437.425
TIGRISAT 03 Dec 09:21:28 09:25:42 34° 70° (ENE) 09:29:55 435.000
ANTELSAT 03 Dec 09:21:58 09:26:16 37° 70° (ENE) 09:30:34 437.575/2403.000
COMPASS 1 03 Dec 09:27:28 09:31:23 42° 288° (WNW) 09:35:18 437.405
CUBEBUG 2 03 Dec 09:32:39 09:36:55 45° 288° (WNW) 09:41:01 437.445
ZACube-1 03 Dec 09:34:22 09:38:39 74° 101° (E) 09:42:49 437.345
FUNcube-1 03 Dec 09:44:01 09:48:18 87° 103° (ESE) 09:52:28 145.935
RS-15 03 Dec 09:46:57 09:58:35 59° 312° (NW) 10:10:47 29.354- 29.394
HUMSAT D 03 Dec 09:56:14 09:59:17 20° 94° (E) 10:02:19 437.325/437.525
Cosmos 2504 03 Dec 09:58:30 10:03:49 18° 284° (WNW) 10:09:02 435.465 / 435.565
CUTE 1.7 + AOD 2 03 Dec 09:59:24 10:00:06 10° 298° (WNW) 10:00:49 437.475
NANOSAT C BR1 03 Dec 10:12:46 10:14:49 13° 63° (ENE) 10:16:53 145.865
QB50P2 03 Dec 10:14:43 10:17:22 16° 64° (ENE) 10:20:00 145.880/145.840
POLYITAN 1 03 Dec 10:15:28 10:18:00 16° 64° (ENE) 10:20:34 437.675
Oscar 11 03 Dec 10:19:09 10:23:10 39° 288° (WNW) 10:27:10 145.826/435.025
UWE-3 03 Dec 10:22:51 10:26:07 21° 294° (WNW) 10:29:19 435.000/436.395/437.385
UNISAT 6 03 Dec 10:26:39 10:31:10 47° 261° (W) 10:35:42 437.425
AIST 2 03 Dec 10:26:58 10:30:28 26° 312° (NW) 10:34:01 435.215
DELFI C3 03 Dec 10:27:47 10:31:46 84° 283° (WNW) 10:35:45 145.870
QB50P1 03 Dec 10:28:48 10:32:01 21° 67° (ENE) 10:35:15 145.935-145.965
DUCHIFAT 1 03 Dec 10:35:21 10:38:34 21° 67° (ENE) 10:41:47 145.980
HO-68 03 Dec 10:36:46 10:41:07 17° 307° (NW) 10:45:30 435.675
AAUSAT CUBESAT 2 03 Dec 10:38:51 10:39:27 10° 298° (WNW) 10:40:04 437.432
JAS-2 03 Dec 10:48:13 10:54:45 60° 73° (ENE) 11:00:34 435.910
POPSAT HIP 1 03 Dec 10:49:14 10:53:06 33° 70° (ENE) 10:56:58 437.405
CUSAT 1 03 Dec 10:56:16 10:59:13 26° 282° (WNW) 11:01:44 437.405
TIGRISAT 03 Dec 10:58:35 11:02:24 24° 266° (W) 11:06:14 435.000
ANTELSAT 03 Dec 10:59:20 11:03:02 23° 266° (W) 11:06:45 437.575/2403.000
DANDE 03 Dec 11:08:05 11:13:18 82° 99° (E) 11:17:11 436.750
Cosmos 2499 03 Dec 11:12:52 11:19:53 26° 66° (ENE) 11:26:33 435.465 / 435.565
CUBEBUG 1 03 Dec 11:12:56 11:14:52 13° 90° (E) 11:16:49 437.445
ZACube-1 03 Dec 11:13:26 11:14:16 10° 299° (WNW) 11:15:06 437.345
GONETS M04 03 Dec 11:20:16 11:27:25 27° 67° (ENE) 11:34:32
HUMSAT D 03 Dec 11:31:20 11:34:57 31° 290° (WNW) 11:38:32 437.325/437.525
PCSat 03 Dec 11:32:52 11:36:51 21° 106° (ESE) 11:40:50 145.827
Oscar 19 03 Dec 11:41:09 11:43:28 13° 59° (ENE) 11:45:47 437.125/150
BUGSAT 1 03 Dec 11:44:26 11:48:27 46° 72° (ENE) 11:52:32 437.445
NANOSAT C BR1 03 Dec 11:45:50 11:50:02 58° 259° (W) 11:54:16 145.865
AO-85 03 Dec 11:46:14 11:50:09 52° 54° (NE) 11:53:55 145.980
QB50P2 03 Dec 11:48:38 11:52:46 47° 261° (W) 11:56:56 145.880/145.840
POLYITAN 1 03 Dec 11:49:13 11:53:24 49° 261° (W) 11:57:35 437.675
ESTCUBE 1 03 Dec 11:52:29 11:56:56 56° 101° (E) 12:01:23 437.505/2401.250
QB50P1 03 Dec 12:03:39 12:07:34 34° 263° (W) 12:11:30 145.935-145.965
RS-15 03 Dec 12:04:49 12:14:32 26° 342° (NNW) 12:24:27 29.354- 29.394
DUCHIFAT 1 03 Dec 12:10:09 12:14:02 34° 263° (W) 12:17:56 145.980
SPROUT 03 Dec 12:10:57 12:14:26 23° 95° (E) 12:17:52 437.525
AISAT 03 Dec 12:12:41 12:16:54 39° 98° (E) 12:21:05 437.250
POPSAT HIP 1 03 Dec 12:25:40 12:28:55 21° 266° (W) 12:32:12 437.405
JAS-2 03 Dec 12:35:07 12:40:03 22° 266° (W) 12:44:38 435.910
CUBEBUG 1 03 Dec 12:47:08 12:51:32 60° 286° (WNW) 12:55:53 437.445
Gurwin Techsat 1B 03 Dec 12:48:48 12:53:18 29° 66° (ENE) 12:57:50 435.225
50 SAT 03 Dec 12:49:24 12:52:57 88° 295° (WNW) 12:56:32 437.505
VELOX 1 03 Dec 12:49:39 12:54:08 86° 287° (WNW) 12:58:36 145.980
Cosmos 2499 03 Dec 13:05:12 13:13:49 69° 267° (W) 13:21:49 435.465 / 435.565
DX 1 03 Dec 13:13:28 13:17:53 88° 284° (WNW) 13:22:17 434.975-435.025
PCSat 03 Dec 13:14:31 13:19:49 54° 304° (NW) 13:25:09 145.827
GONETS M04 03 Dec 13:16:19 13:24:55 66° 267° (W) 13:33:30
Oscar 19 03 Dec 13:16:57 13:22:04 83° 256° (WSW) 13:27:14 437.125/150
BUGSAT 1 03 Dec 13:21:36 13:24:03 15° 268° (W) 13:26:32 437.445
UKube-1 03 Dec 13:26:49 13:31:11 84° 287° (WNW) 13:35:31 .
AO-85 03 Dec 13:28:20 13:30:01 12° 251° (WSW) 13:31:42 145.980
ESTCUBE 1 03 Dec 13:30:42 13:33:16 15° 297° (WNW) 13:35:50 437.505/2401.250
ITAMSAT 1 03 Dec 13:40:06 13:43:55 21° 63° (ENE) 13:47:43 435.822/435.867
TISAT 1 03 Dec 13:43:35 13:47:35 39° 98° (E) 13:51:32 437.305
SPROUT 03 Dec 13:46:35 13:50:21 30° 291° (WNW) 13:54:04 437.525
AISAT 03 Dec 13:49:48 13:53:04 20° 295° (WNW) 13:56:21 437.250
M-CUBED/EXP-1 PRIME 03 Dec 13:57:29 13:59:24 12° 94° (E) 14:01:18 437.505
AO-7 03 Dec 14:00:14 14:07:27 35° 58° (ENE) 14:14:42 29.400- 29.500
